Location: Boiro
(42.6475°N, 8.8834°W)
Time: 04:18:16
(UTC+01:00)

Vanguard 1 Rocket - Pass Details

Date: 11 December 2021
Orbit: 651 x 4224 km, 34.3° (Epoch: 21 January)

Event Time Altitude Azimuth Distance (km) Brightness Sun altitude
Rises 06:00:14 0° 270° (W) 4,752 - -31.3°
Reaches altitude 10° 06:02:50 10° 265° (W) 4,103 - -30.9°
Exits shadow 06:09:00 40° 242° (WSW) 3,088 9.6 -29.7°
Maximum altitude 06:14:16 55° 192° (SSW) 3,116 9.9 -28.8°
Drops below altitude 10° 06:35:18 10° 123° (ESE) 7,104 12.8 -24.9°
Sets 06:41:40 0° 120° (ESE) 8,367 13.5 -23.8°
